RH
98 95 88 88 90 88 83 78 76 72 72 75 74 78 81 88 79 66 64 63 63 63 70 76 71 62 63 67 67 67 72 78 95 79 76 71 72 72 72 74 80 88 89
98 96 91 87 87 89 85 77 75 74 68 69 72 70 75 77 71 68 67 66 68 76 77 79 72 65 61 67 69 74 72 71 93 90 84 81 79 80 84 92 94 100 99
95 97 97 94 89 88 87 82 75 74 69 70 66 69 64 59 62 65 67 67 70 71 70 71 65 68 71 69 71 80 78 76 86 97 93 93 95 97 99 99 100 100 100
88 92 94 98 95 92 90 86 82 76 77 73 78 76 74 66 60 59 67 72 73 70 69 70 70 70 70 68 76 78 80 88 94 100 100 100 100 100 100 100 100 100 99
93 85 82 87 97 98 95 91 88 85 84 82 78 76 73 71 72 72 70 69 72 73 73 69 68 70 72 75 84 89 93 98 100 100 100 100 100 100 100 100 100 100 100
85 81 82 84 89 97 98 98 95 95 91 86 86 80 76 72 68 67 69 76 78 77 75 72 79 84 91 93 94 96 100 100 100 100 100 100 100 100 100 99 100 98 99
88 90 90 86 84 87 96 99 97 95 97 98 93 89 83 78 72 68 64 66 70 72 78 85 89 98 100 100 100 100 100 100 99 98 99 99 99 99 98 99 97 96 95
86 89 91 92 89 85 85 87 94 96 96 96 97 94 93 89 83 78 71 66 69 72 81 88 94 100 100 100 100 100 100 100 99 100 97 97 96 74 66 57 45 40 36
80 82 91 93 92 91 92 94 94 94 97 98 97 98 94 92 90 86 81 79 91 99 100 100 100 100 100 100 99 99 96 92 82 72 59 56 56 56 55 52 61 58 66
99 96 88 88 93 94 93 94 96 96 97 100 100 100 97 95 96 91 91 93 100 100 100 100 100 99 99 100 95 96 99 99 96 94 94 90 87 78 64 64 67 76 76
100 100 100 96 90 92 94 94 95 97 100 100 100 100 100 100 100 100 100 100 100 100 100 100 100 100 97 96 95 93 95 96 96 96 96 94 83 72 71 70 70 73 90
100 100 100 100 100 100 99 100 100 100 100 100 100 100 100 100 99 99 99 99 99 100 100 100 98 99 100 98 95 97 96 96 96 96 95 96 90 86 77 72 63 61 62
98 100 100 99 100 100 100 100 100 100 100 100 100 100 100 100 100 97 97 98 97 93 93 95 97 96 95 95 96 95 94 95 95 94 95 96 88 89 72 62 65 66 58
100 100 100 100 100 99 100 100 100 100 98 99 98 99 100 100 100 100 100 100 97 98 97 96 96 95 94 95 95 95 95 94 91 96 96 84 73 76 75 65 68 70 77
97 99 100 100 100 100 100 100 100 99 99 99 99 98 96 99 99 98 100 100 98 97 97 99 98 98 97 96 96 96 97 90 91 90 87 83 77 68 81 68 79 79 88
99 99 98 98 99 99 98 100 98 96 94 99 98 97 100 98 97 97 96 97 96 96 97 98 98 98 98 100 99 98 87 82 81 76 78 74 72 75 88 86 81 84 90
100 100 100 99 99 98 96 92 95 99 98 98 98 96 97 98 98 97 96 97 96 93 96 97 97 97 99 97 95 87 84 79 74 75 72 71 71 78 80 87 87 88 91
100 100 100 99 99 98 97 98 96 94 95 98 97 96 96 97 97 97 96 94 95 95 95 97 97 93 89 89 88 86 82 80 80 79 82 86 83 74 78 86 86 89 92
100 100 100 100 100 100 99 97 98 97 97 97 96 95 97 98 96 96 94 92 97 97 93 92 89 85 84 84 84 83 80 80 80 81 90 84 76 75 81 82 85 84 92
98 97 98 99 98 100 99 98 98 98 97 97 97 96 95 81 84 90 88 90 94 96 90 86 86 86 86 85 83 78 78 82 86 90 88 82 79 78 79 84 86 88 96
97 96 96 96 98 99 99 100 99 98 99 100 100 95 83 82 97 95 90 90 90 88 88 88 88 87 86 84 81 80 84 92 94 89 83 79 76 76 81 82 84 88 94
96 98 96 97 97 98 99 99 99 99 100 100 99 85 77 84 90 91 91 91 92 94 92 88 90 91 89 84 82 83 88 89 88 84 80 80 81 82 82 84 86 89 93
95 95 97 97 97 96 97 97 98 99 99 98 92 88 86 90 93 96 97 95 93 90 90 90 90 90 86 79 80 87 90 90 87 88 89 82 80 82 84 87 91 92 95
95 95 96 97 97 98 96 93 90 87 85 85 87 88 88 87 88 91 91 90 85 85 92 91 88 88 86 84 88 93 93 94 98 97 90 85 87 85 83 87 92 95 98
96 96 94 96 95 94 91 90 91 94 94 92 95 96 96 94 95 96 94 81 79 91 94 97 99 99 96 96 99 99 100 100 97 95 95 91 81 78 88 94 95 98 98
90 91 92 90 91 92 94 95 96 96 97 98 99 100 97 97 99 97 94 78 83 90 92 92 96 99 100 100 100 100 99 97 97 99 94 80 79 86 94 95 97 100 100
Wind_Speed
33 31 29 30 29 26 30 30 30 32 31 33 36 37 39 35 39 40 39 39 36 33 35 36 39 37 36 35 34 34 34 31 14 27 28 32 31 31 28 29 30 30 32
32 31 30 30 30 30 28 33 31 33 35 37 38 39 37 39 39 40 39 37 37 36 37 36 39 37 34 35 36 37 38 36 25 22 28 31 32 28 24 25 29 28 28
32 30 29 31 31 32 33 31 33 34 37 36 38 41 42 40 40 40 40 38 38 39 38 39 38 36 36 36 38 37 37 38 35 26 25 24 21 22 22 21 21 19 19
32 30 30 31 32 31 31 33 35 36 37 41 37 37 37 40 42 42 41 39 39 39 39 40 38 37 38 38 39 40 39 35 31 26 20 19 17 14 12 10 7 8 7
32 33 31 30 30 31 32 33 33 35 37 37 39 38 38 39 38 37 37 37 37 38 41 39 38 39 40 41 38 34 33 31 25 22 14 7 6 5 4 3 3 2 1
32 33 34 33 31 32 33 34 34 35 35 34 36 39 39 42 40 40 38 36 38 38 37 38 37 37 37 39 39 39 33 27 27 18 10 8 7 6 8 5 4 2 1
27 29 32 34 35 34 31 33 34 35 34 35 34 35 37 39 41 44 44 42 38 41 40 38 33 28 25 23 17 15 13 12 14 12 12 13 11 10 8 9 8 6 4
26 26 27 31 32 32 34 34 33 33 36 35 36 37 35 40 43 43 42 43 44 40 36 36 33 29 22 20 19 18 19 19 18 20 19 22 17 11 10 8 7 4 3
19 21 25 27 30 32 32 33 33 33 32 35 35 36 36 37 39 40 40 37 31 24 21 20 22 21 20 23 26 29 30 28 25 30 26 19 19 12 11 7 11 10 5
14 13 14 26 30 31 33 32 32 33 30 31 31 30 34 38 35 38 38 35 28 23 19 18 21 24 24 26 31 27 29 19 22 22 21 18 15 17 16 15 13 14 7
13 11 7 10 18 25 27 28 33 33 29 25 22 18 19 18 18 23 25 34 34 29 25 27 28 30 31 27 25 28 30 23 21 21 17 16 15 15 15 14 15 13 11
15 18 20 21 12 6 17 18 21 27 26 22 24 24 18 15 13 15 17 25 28 34 30 33 29 30 30 32 30 23 24 21 16 17 15 13 14 17 15 14 13 10 8
21 24 24 24 26 26 20 14 14 17 20 18 21 25 26 28 31 33 34 38 41 44 41 35 31 31 29 29 24 23 23 19 18 19 15 13 14 13 12 13 13 12 11
22 24 26 30 31 31 29 26 22 15 15 23 23 23 26 26 28 31 40 41 43 41 38 36 32 31 34 26 23 22 22 17 18 14 12 11 11 13 16 16 17 17 13
22 20 21 28 33 39 40 31 32 27 17 21 21 25 30 28 28 30 28 34 38 34 33 27 28 24 26 24 21 19 16 14 15 13 14 14 14 14 15 15 16 15 11
23 23 21 19 23 29 38 41 43 39 40 29 34 31 28 37 35 34 34 30 32 31 28 24 23 22 19 17 19 17 15 15 13 12 13 14 14 13 12 13 13 13 12
23 22 22 20 20 24 26 29 36 42 43 39 38 39 34 34 34 33 32 28 27 26 28 24 24 22 17 16 16 15 16 14 12 14 13 13 11 11 11 12 14 15 15
27 26 24 26 21 24 25 26 26 27 29 32 33 34 31 30 30 27 26 26 27 25 25 23 22 20 17 17 16 15 14 13 14 12 11 10 11 11 12 13 15 15 15
25 27 25 25 24 22 27 28 26 25 26 26 28 31 29 27 25 22 22 27 24 23 21 22 19 18 17 17 16 14 12 12 10 10 10 9 10 11 11 12 13 14 13
28 27 25 24 25 21 23 25 24 23 24 22 21 19 21 23 26 25 24 25 24 22 19 19 17 16 14 13 12 10 10 9 8 8 8 8 9 10 11 12 13 14 13
26 27 25 25 24 22 22 23 22 23 22 22 23 20 22 26 24 23 22 21 20 18 17 16 14 13 9 8 8 7 8 7 6 5 8 9 10 11 10 11 11 13 15
26 24 25 22 22 22 21 22 23 23 22 22 23 21 22 24 23 21 20 19 16 14 12 10 10 9 6 6 5 4 4 4 4 6 8 9 9 10 11 10 12 15 16
26 25 24 25 23 23 23 22 23 23 22 22 21 21 21 20 19 18 16 14 12 10 8 6 6 5 6 6 4 2 2 3 4 6 8 11 11 10 12 13 15 16 16
24 23 23 22 22 22 22 22 21 21 21 21 21 20 19 17 15 13 11 8 7 6 5 4 4 5 6 5 1 0 1 1 4 9 11 11 11 13 14 15 15 15 16
21 22 22 21 22 23 23 22 21 20 19 18 18 17 15 14 12 10 8 6 4 3 3 1 2 3 4 1 1 1 1 6 8 9 11 12 14 14 13 14 15 16 18
20 21 21 21 21 21 21 21 19 17 17 16 14 12 10 9 8 6 5 3 0 2 2 2 3 2 2 4 5 7 9 9 9 11 14 14 14 13 14 15 17 18 20
Wind_Direction
180 183 187 188 189 191 191 192 191 191 190 194 193 194 200 204 211 216 218 229 231 234 240 242 237 248 247 250 253 255 255 249 234 263 266 271 271 271 270 264 261 279 279
180 182 189 192 190 192 198 197 196 197 199 202 201 204 205 210 214 217 221 227 228 238 241 245 245 243 247 252 256 258 258 259 241 247 264 266 267 266 262 263 269 275 273
178 185 190 195 196 197 198 201 202 204 206 208 213 211 211 210 216 220 222 226 227 232 238 242 244 248 251 255 259 257 259 261 257 248 254 262 253 255 259 262 267 271 277
182 186 194 197 197 202 203 202 203 209 209 210 209 211 215 218 221 224 227 229 232 237 240 242 246 249 256 259 259 260 258 254 253 251 253 242 240 248 262 258 264 269 238
187 191 199 202 200 199 203 206 207 208 211 212 214 217 220 220 222 224 229 231 235 239 243 247 252 256 257 258 254 255 255 251 252 238 218 202 199 197 197 218 162 161 104
191 196 195 201 204 201 203 203 205 211 214 212 212 216 220 226 229 230 230 233 238 243 247 249 248 251 253 256 260 259 257 252 236 215 191 167 142 125 125 119 139 116 135
203 197 197 199 202 205 203 203 206 208 210 214 217 219 223 227 229 230 231 233 238 243 242 242 237 238 241 240 233 224 208 203 207 195 151 134 124 133 118 91 70 66 18
211 211 204 201 208 208 208 210 211 209 210 212 218 221 225 232 236 237 235 235 235 238 237 237 232 222 213 199 177 147 125 115 114 117 126 120 108 96 105 98 88 76 23
218 217 211 209 207 205 210 210 209 211 211 210 215 219 222 228 231 231 228 225 221 213 212 209 205 190 174 162 150 130 114 99 90 96 94 96 103 101 94 99 56 56 55
355 316 259 213 214 210 210 208 209 211 212 208 208 210 217 221 225 229 228 214 191 170 163 157 162 152 146 143 130 113 103 100 106 102 111 111 97 86 74 71 66 67 46
10 10 17 219 220 216 212 211 209 203 200 192 180 178 187 192 183 183 193 195 179 142 116 116 125 138 139 130 122 116 113 120 120 112 105 100 94 84 72 61 55 54 55
46 47 47 47 66 130 184 187 186 181 165 139 119 101 104 112 133 136 139 134 119 110 101 104 99 96 102 107 108 108 113 114 116 106 93 63 61 61 55 46 41 41 37
60 52 54 60 57 58 66 91 108 128 115 109 108 104 96 94 96 113 109 107 110 111 112 110 106 105 99 96 98 106 105 103 97 82 76 73 63 56 35 32 30 27 25
66 68 67 65 63 62 59 54 53 62 104 117 113 109 105 100 101 103 106 106 112 113 120 118 114 111 105 103 101 98 94 98 100 100 99 77 54 51 45 36 31 24 21
52 48 68 83 83 77 68 64 65 63 64 91 95 108 112 108 111 118 118 118 119 120 116 112 105 103 99 100 97 93 95 89 87 88 79 69 62 48 46 37 37 26 22
75 64 48 59 80 93 96 86 85 93 94 82 93 95 92 109 113 110 108 111 118 126 111 100 94 92 93 98 96 93 93 91 85 81 75 64 56 46 43 40 32 23 10
79 78 74 64 70 82 82 87 97 83 80 85 88 94 93 102 108 113 115 118 123 121 94 91 88 92 93 95 97 98 95 91 92 82 70 64 60 54 44 36 25 16 4
81 79 78 81 75 80 82 86 86 87 90 80 80 83 85 88 92 105 115 117 95 96 97 97 101 106 105 106 108 108 103 97 86 82 77 67 57 47 37 28 20 7 356
82 82 82 84 83 84 89 89 86 87 85 86 86 85 82 86 93 98 109 100 95 92 100 103 108 110 114 114 111 108 100 93 88 84 74 55 39 29 28 20 8 359 350
83 90 89 87 87 79 84 87 88 87 85 81 76 83 96 100 88 91 100 104 103 105 110 111 113 116 114 115 115 111 109 101 88 80 58 36 23 16 12 5 357 347 337
85 86 89 88 83 85 82 84 85 85 84 83 83 95 102 100 92 94 100 100 104 107 110 111 111 110 109 109 104 103 95 96 85 52 25 10 2 3 355 345 341 341 340
94 92 89 86 90 88 87 88 89 90 91 91 94 99 105 104 105 104 101 100 102 102 104 110 111 104 95 76 61 71 75 55 23 359 1 358 354 345 341 342 347 349 345
100 92 88 91 94 97 94 97 99 103 104 105 108 107 104 103 105 105 103 102 100 97 95 95 93 78 44 32 30 359 312 307 340 353 334 336 346 344 341 344 344 340 336
100 96 96 97 100 99 100 102 106 109 111 111 112 110 108 105 103 100 92 83 81 93 102 89 57 28 14 6 337 134 356 357 324 323 332 338 332 331 337 337 335 334 331
96 99 101 101 104 108 112 113 112 111 113 114 113 113 113 110 106 96 76 58 89 114 110 86 336 333 330 273 230 185 291 298 315 320 317 318 327 332 336 329 328 326 320
106 106 107 111 114 117 118 117 116 116 117 119 116 115 116 118 112 91 59 40 133 260 277 276 271 267 239 300 299 300 299 305 302 304 313 321 322 322 324 320 319 314 314